Location: Le Rocchette
(44.3500°N, 7.8333°E)
Time: 00:29:16
(UTC+00:00)

Cosmos 839 Rocket - Pass Details

Date: 17 November 2019
Orbit: 968 x 2084 km, 65.9° (Epoch: 06 December)

Event Time Altitude Azimuth Distance (km) Brightness Sun altitude
Exits shadow 03:17:30 70° 113° (ESE) 1,138 4.3 -33.7°
Drops below altitude 10° 03:23:40 10° 37° (NE) 2,758 6.8 -32.6°
Sets 03:26:07 0° 36° (NE) 3,678 7.5 -32.1°
